CORVUS-BC 4 (43767 NORAD) Tracking and Keplerian Element Data

This shows tracking and keplerian element data for the satellite.

Feedback or suggestion? Click here.




ElementValue
Catalog43767
NameCORVUS-BC 4
Epoch Orbit430
Epoch Day1.54158501
Epoch Year2019
RAAN75.3889
Inclination97.7646
Eccentricity0.001246
Argument of Perigee157.9446
Mean Anonmoly202.2313
Mean Motion14.94496921
Decay Rate5.47E-06
L11 43767U 18099K 19001.54158501 .00000547 00000-0 55909-4 0 9992
L22 43767 97.7646 75.3889 0012460 157.9446 202.2313 14.94496921 4306

Live tracking and technical data element details for CORVUS-BC 4 (NORAD 43767). CORVUS-BC 4 can be tracked NOW for your location showing map with azimuth and elevation plus other details from your city location.

Track the satellite on the map from your city or location and see movement details for azimuth, elevation, latitude, longitude, range, height, and movement on the map or in text.







IsCatalogInMostPopularTable: catalog: 43767, numindb: 19
Update: records affected: 1



GetName: 43767 CORVUS-BC 4

Hit Count: updated at: Wed, 23 Jan 2019 03:09:23 GMT